Probability
0 0 0 0 0 0 0 0 0 0 0 0 0 0 0 0 0 0 0 0 0 0 0 0 0 0 0 0 0 0 0 0 0 0 0 0 0 0 0 0 0 0 0
0 0 0 0 0 0 0 0 0 0 0 0 0 0 0 0 0 0 0 0 0 0 0 0 0 0 0 0 0 0 0 0 0 0 0 0 0 0 0 0 0 0 0
0 0 0 0 0 0 0 0 0 0 0 0 0 0 0 0 0 0 0 0 0 0 0 0 0 0 0 0 0 0 0 0 0 0 0 0 0 0 0 0 0 0 0
0 0 0 0 0 0 0 0 0 0 0 0 0 0 0 0 0 0 0 0 0 0 0 0 0 0 0 0 0 0 0 0 0 0 0 0 0 0 0 0 0 0 0
0 0 0 0 0 0 0 0 0 0 0 0 0 0 0 0 0 0 0 0 0 0 0 0 0 0 0 0 0 0 0 0 0 0 0 0 0 0 0 0 0 0 0
0 0 0 0 0 0 0 0 0 0 0 0 0 0 0 0 0 0 0 0 0 0 0 0 0 0 0 0 0 0 0 0 0 0 0 0 0 0 0 0 0 0 0
0 0 0 0 0 0 0 0 0 0 0 0 0 0 0 0 0 0 0 0 0 0 0 0 0 0 0 0 0 0 0 0 0 0 0 0 0 0 0 0 0 0 0
0 0 0 0 0 0 0 0 0 0 0 0 0 0 0 0 0 0 0 0 0 0 0 0 0 0 0 0 0 0 0 0 0 0 0 0 0 0 0 0 0 0 0
0 0 0 0 0 0 0 0 0 0 0 0 0 0 0 0 0 0 0 0 0 0 0 0 0 0 0 0 0 0 0 0 0 0 0 0 0 0 0 0 0 0 0
0 0 0 0 0 0 0 0 0 0 0 0 0 0 0 0 0 0 0 0 0 0 0 0 0 0 0 0 0 0 0 0 0 0 0 0 0 0 0 0 0 0 0
0 0 0 0 0 0 0 0 0 0 0 0 0 0 0 0 0 0 0 0 0 0 0 0 0 0 0 0 0 0 0 0 0 0 0 0 0 0 0 0 0 0 0
0 0 0 0 0 0 0 0 0 0 0 0 0 0 0 0 0 0 0 0 0 0 0 0 0 0 0 0 0 0 0 0 0 0 0 0 0 0 0 0 0 0 0
0 0 0 0 0 0 0 0 0 0 0 0 0 0 0 0 0 0 0 0 0 0 0 0 0 0 0 0 0 0 0 0 0 0 0 0 0 0 0 0 0 0 0
0 0 0 0 0 0 0 0 0 0 0 0 0 0 0 0 0 0 0 0 0 0 0 0 0 0 0 0 0 0 0 0 0 0 0 0 0 0 0 0 0 0 0
0 0 0 0 0 0 0 0 0 0 0 0 0 0 0 0 0 0 0 0 0 0 0 0 0 0 0 0 0 0 0 0 0 0 0 0 0 0 0 0 0 0 0
0 0 0 0 0 0 0 0 0 0 0 0 0 0 0 0 0 0 0 0 0 0 0 0 0 0 0 0 0 0 0 0 0 0 0 0 0 0 0 0 0 0 0
0 0 0 0 0 0 0 0 0 0 0 0 0 0 0 0 0 0 0 0 0 0 0 0 0 0 0 0 0 0 0 0 0 0 0 0 0 0 0 0 0 0 0
0 0 0 0 0 0 0 0 0 0 0 0 0 0 0 0 0 0 0 0 0 0 0 0 0 0 0 0 0 0 0 0 0 0 0 0 0 0 0 0 0 0 0
0 0 0 0 0 0 0 0 0 0 0 0 0 0 0 0 0 0 0 0 0 0 0 0 0 0 0 0 0 0 0 0 0 0 0 0 0 0 0 0 0 0 0
0 0 0 0 0 0 0 0 0 0 0 0 0 0 0 0 0 0 0 0 0 0 0 0 0 0 0 0 0 0 0 0 0 0 0 0 0 0 0 0 0 0 0
0 0 0 0 0 0 0 0 0 0 0 0 0 0 0 0 0 0 0 0 0 0 0 0 0 0 0 0 0 0 0 0 0 0 0 0 0 0 0 0 0 0 0
0 0 0 0 0 0 0 0 0 0 0 0 0 0 0 0 0 0 0 0 0 0 0 0 0 0 0 0 0 0 0 0 0 0 0 0 0 0 0 0 0 0 0
0 0 0 0 0 0 0 0 0 0 0 0 0 0 0 0 0 0 0 0 0 0 0 0 0 0 0 0 0 0 0 0 0 0 0 0 0 0 0 0 0 0 0
0 0 0 0 0 0 0 0 0 0 0 0 0 0 0 0 0 0 0 0 0 0 0 0 0 0 0 0 0 0 0 0 0 0 0 0 0 0 0 0 0 0 0
0 0 0 0 0 0 0 0 0 0 0 0 0 0 0 0 0 0 0 0 0 0 0 0 0 0 0 0 0 0 0 0 0 0 0 0 0 0 0 0 0 0 0
0 0 0 0 0 0 0 0 0 0 0 0 0 0 0 0 0 0 0 0 0 0 0 0 0 0 0 0 0 0 0 0 0 0 0 0 0 0 0 0 0 0 0
Wind_Speed
6 6 5 5 5 5 4 4 3 3 3 3 2 2 1 1 1 1 1 1 2 2 2 3 4 3 3 3 2 3 3 3 4 3 2 2 2 2 2 3 4 5 5
6 5 5 5 4 4 4 3 3 2 2 2 1 1 1 1 1 1 1 1 2 3 3 3 3 3 4 3 3 3 3 3 4 4 2 2 2 2 2 3 3 5 4
7 7 6 6 6 5 5 4 4 3 3 4 3 3 2 2 2 2 2 2 3 4 4 4 4 3 3 2 3 3 2 2 3 3 3 2 1 1 1 1 2 1 3
7 8 8 7 6 6 6 6 6 6 6 6 6 6 5 4 4 3 2 2 3 3 3 3 3 4 4 4 3 3 2 1 1 2 2 1 1 1 1 1 1 1 1
7 8 8 7 7 8 8 8 8 8 9 7 8 8 6 5 5 4 2 1 0 0 0 1 2 4 6 4 3 3 2 1 1 1 1 0 0 0 1 1 2 1 0
7 7 7 7 8 8 7 7 8 8 7 7 8 7 7 7 10 8 4 2 2 2 1 1 1 3 4 4 5 5 4 3 2 1 0 0 1 1 1 1 1 1 0
6 6 6 6 7 7 7 7 7 6 7 7 6 6 6 9 15 14 12 5 3 2 1 1 1 2 2 1 2 2 1 2 3 3 2 1 1 1 2 2 1 1 1
5 5 5 6 6 6 6 6 5 5 5 5 5 6 6 11 17 16 13 7 5 4 3 1 2 2 2 2 2 2 1 1 0 1 2 1 0 1 2 2 2 3 2
4 4 4 4 5 6 6 5 4 4 4 4 4 6 7 9 16 16 12 5 5 6 5 4 3 3 2 4 4 4 3 2 3 4 4 3 4 4 4 3 3 3 2
1 2 3 4 5 5 5 5 4 4 4 5 6 6 6 7 14 16 12 4 4 4 4 4 5 4 3 3 4 5 4 2 2 3 3 4 4 4 5 3 3 2 2
1 2 3 4 4 4 5 5 5 5 5 5 6 5 6 8 12 15 14 4 3 3 2 2 2 4 4 3 3 3 3 3 2 3 3 3 3 3 3 2 2 2 2
1 2 3 4 4 5 5 5 5 5 6 5 5 5 5 7 9 12 15 11 7 2 2 2 2 3 3 3 3 3 4 4 3 3 3 2 2 2 2 3 3 3 3
3 3 4 5 5 4 5 5 5 5 4 4 4 5 5 6 8 14 14 13 11 4 2 3 3 4 3 3 3 4 4 3 3 3 3 2 1 1 2 3 4 5 5
4 4 4 5 5 5 4 4 4 4 4 4 5 5 5 5 6 7 6 7 8 6 5 6 7 8 5 4 4 4 3 3 3 3 3 2 2 3 3 3 3 3 4
5 5 4 4 4 4 4 3 3 3 2 2 2 3 4 5 7 11 8 6 5 5 4 5 5 5 5 5 4 4 4 3 4 3 3 4 4 4 4 3 3 4 4
4 4 3 3 3 3 3 2 4 2 4 5 4 3 3 5 8 11 13 14 14 11 7 7 7 6 6 5 5 5 5 5 4 4 5 4 4 5 4 4 4 4 4
5 4 3 3 3 3 2 2 0 2 4 4 6 6 6 9 10 10 11 12 14 12 8 7 7 6 6 6 6 5 5 4 4 5 5 5 4 4 4 4 4 4 4
4 4 4 3 3 3 3 3 2 1 1 2 4 6 7 9 10 10 10 8 8 8 6 6 6 6 6 6 6 5 5 5 5 5 5 4 4 4 4 4 4 4 3
3 3 3 3 2 3 3 3 2 2 1 1 2 4 6 6 9 10 8 5 4 5 5 5 5 5 5 5 5 5 5 5 5 4 4 4 4 4 4 3 3 5 3
2 4 4 3 2 3 3 3 3 3 2 1 1 1 2 3 3 4 4 3 3 3 3 4 4 4 4 4 4 4 4 4 4 4 4 3 3 4 4 4 3 3 2
1 2 3 2 3 3 3 4 4 3 3 2 1 1 1 2 1 2 2 2 2 2 2 3 3 3 3 3 3 4 4 4 3 3 3 3 3 3 3 3 3 3 2
1 2 2 3 3 3 4 4 4 4 4 3 2 1 1 2 1 2 1 1 1 1 1 2 2 2 2 2 2 3 3 3 3 3 3 3 3 3 3 3 3 2 3
2 1 2 3 3 5 5 4 4 4 4 4 3 2 2 2 2 2 2 2 1 1 1 2 2 2 2 2 2 2 2 1 2 2 2 3 3 3 3 3 3 3 3
1 1 2 3 4 4 4 5 5 5 5 4 4 3 3 3 3 3 3 3 2 2 2 2 2 3 3 2 2 1 0 1 0 0 2 4 3 3 3 3 3 3 4
2 2 2 3 4 5 5 5 5 5 5 5 4 4 4 4 4 4 4 3 3 3 3 3 2 3 3 3 2 1 1 1 1 2 2 3 4 3 3 3 3 3 4
3 3 3 3 4 5 5 5 6 6 5 5 5 5 5 5 5 4 4 4 4 3 3 3 4 5 4 3 2 2 3 3 3 4 3 3 4 3 4 3 4 4 4
Wind_Direction
10 15 23 27 34 40 42 42 47 47 49 54 53 44 32 31 35 75 241 222 225 234 220 202 208 196 188 183 175 176 182 175 214 259 259 269 247 231 196 194 204 210 217
1 9 17 19 26 30 27 20 22 28 24 32 40 43 16 2 3 334 293 252 241 246 241 224 223 201 195 193 188 197 199 197 203 245 270 264 245 224 196 193 202 209 211
12 19 25 26 29 29 25 23 28 33 33 36 47 53 38 29 10 327 286 261 252 250 235 216 216 191 199 197 199 204 208 206 199 219 256 257 258 224 162 194 199 202 211
21 26 27 22 26 30 33 36 41 48 54 54 56 53 54 54 40 5 337 285 253 241 230 206 190 185 191 187 184 189 181 175 189 217 250 264 261 252 152 187 217 214 237
29 32 27 26 31 35 40 42 46 52 57 56 58 49 40 42 31 13 357 0 344 355 329 212 191 184 176 171 163 163 147 140 147 180 245 298 292 186 211 190 196 178 312
33 30 27 30 33 35 39 44 48 48 50 56 55 50 40 31 25 26 29 26 32 47 42 38 107 141 162 166 163 162 158 150 149 136 119 183 265 230 179 148 138 119 264
33 27 26 30 33 30 39 43 44 44 49 51 46 42 34 25 32 34 39 43 40 37 55 114 113 117 125 125 148 130 123 132 146 147 140 201 236 217 151 122 119 122 140
34 26 23 31 33 31 37 39 38 39 45 46 40 34 30 26 31 33 35 34 35 31 33 63 111 105 116 148 141 119 80 41 89 121 138 147 143 122 132 127 120 97 66
27 22 24 35 40 37 35 30 29 40 38 35 32 31 29 16 25 30 33 22 31 29 31 43 73 86 87 128 133 125 98 61 66 99 110 99 91 95 106 92 83 83 65
355 20 35 47 52 46 37 31 30 41 40 42 39 31 27 16 19 26 29 22 27 24 25 30 48 62 62 106 132 134 130 123 100 89 70 56 57 65 75 92 116 109 109
297 43 50 56 63 56 46 38 43 48 47 44 43 30 23 15 12 19 23 21 12 17 21 10 0 27 48 67 104 121 138 135 121 121 98 72 56 49 48 59 85 112 116
102 71 64 58 63 64 58 45 40 46 48 36 28 18 10 5 5 9 18 22 21 21 357 332 322 359 38 66 88 102 102 103 104 103 95 80 69 55 48 55 61 66 74
114 101 93 77 63 59 63 56 44 39 44 33 27 18 1 356 359 9 13 17 20 25 4 8 37 46 52 50 57 82 94 103 111 111 108 94 76 67 65 61 52 59 56
121 122 116 99 79 60 53 51 55 43 40 36 27 15 360 355 0 2 1 6 11 21 20 32 54 63 63 55 53 58 77 108 120 118 110 89 64 57 51 55 62 56 57
117 125 125 117 110 86 65 48 54 42 44 46 17 1 4 1 354 8 22 19 16 18 26 41 44 44 49 49 52 55 58 70 78 80 88 85 73 65 50 46 62 64 68
124 132 138 139 134 125 111 67 27 24 28 37 34 25 354 6 13 28 34 34 33 36 51 50 48 46 48 50 57 56 52 56 61 74 78 80 80 78 70 57 62 73 73
143 149 152 155 158 160 158 149 113 347 356 8 13 17 26 28 34 38 40 40 36 40 53 48 45 45 46 47 51 58 55 46 58 70 77 79 82 80 77 70 69 73 70
142 153 154 165 171 174 180 182 175 163 353 338 346 1 22 38 44 47 45 48 38 37 42 43 40 38 41 46 47 51 53 52 55 61 66 69 75 82 79 75 74 83 77
151 162 165 166 165 160 155 146 139 129 103 22 2 2 22 44 48 46 49 58 56 44 38 39 35 34 37 42 45 48 53 54 52 56 58 64 71 81 83 81 80 80 78
193 190 170 164 160 150 141 137 137 136 128 100 49 356 4 43 41 31 40 56 64 56 46 42 36 38 39 40 42 47 51 49 47 53 57 63 71 83 92 91 91 88 76
236 215 180 161 169 165 159 159 161 161 167 181 230 268 147 110 98 81 74 74 83 80 67 54 46 40 41 43 48 54 58 50 45 51 59 66 78 83 86 90 93 90 87
290 242 201 188 180 177 175 173 171 176 186 195 227 270 130 122 140 136 128 128 132 118 106 92 76 62 63 64 68 73 64 50 36 40 61 73 80 90 96 95 92 84 89
319 271 218 203 191 185 179 180 180 184 195 205 210 212 195 179 179 178 175 174 161 127 100 103 106 97 77 66 63 82 90 58 7 26 86 91 92 95 100 103 105 102 97
315 288 234 212 202 197 194 193 194 195 197 201 202 202 200 195 190 186 183 180 173 154 128 121 130 138 126 97 74 63 36 290 287 72 107 118 115 110 103 96 94 105 104
293 279 249 218 212 210 207 204 202 201 201 201 199 198 196 189 186 185 184 184 181 180 170 154 145 143 141 132 119 80 39 49 110 136 120 120 121 116 108 102 100 100 105
285 277 266 236 220 214 208 206 206 204 204 205 201 196 191 188 187 186 184 184 185 185 177 171 174 170 162 149 129 93 59 57 112 127 122 118 121 121 115 102 103 100 105